Flag for Norway Weather past 2 weeks in Trondheim, Norway

Now
61 °F

Passing clouds.


Feels Like: 61 °F
Forecast: 49 / 57 °F
Wind: 6 mph from Northwest

Location: Trondheim / Vaernes

Current Time: Aug 1, 2015 at 2:17:47 PM

Latest Report: Aug 1, 2015 at 1:50 PM


Visibility: N/A

Pressure: 29.95 "Hg

Humidity: 48%

Dew point: 41 °F

Location of TrondheimLocation

Historic Weather in Trondheim — Graph

°F

Trondheim temperature yesterday

Maximum temperature yesterday: 57 °F (at 1:50 PM)
Minimum temperature yesterday: 48 °F (at 1:50 AM)
Average temperature yesterday: 52 °F

Past Weeks' High & Low Weather Summary

 TemperatureHumidityPressure
High68 °F (Jul 21, 12:50 PM)100% (Jul 18, 11:50 PM)30.04 "Hg (Jul 18, 11:50 PM)
Low45 °F (Jul 21, 4:20 AM)48% (Aug 1, 12:20 PM)29.36 "Hg (Jul 27, 3:50 AM)
Average56 °F77%29.67 "Hg
* Reported Jul 17 12:20 PM — Aug 1 12:50 PM, Trondheim, Weather by CustomWeather, © 2015

Note: Actual official high and low records may vary slightly from our data, if they occured in-between our weather recording intervals... More about our weather records

Advertising

Trondheim weather history for previous 24 hours

 ConditionsComfort  
Time TempWeatherWind HumidityBarometerVisibility
12:50 PM
Sat, Aug 1
59 °FPassing clouds.7 mph51%29.95 "HgN/A
12:20 PM59 °FPassing clouds.5 mph48%29.95 "HgN/A
11:50 AM57 °FPassing clouds.5 mph51%29.95 "HgN/A
11:20 AM57 °FPassing clouds.3 mph55%29.95 "HgN/A
10:50 AM55 °FPassing clouds.3 mph59%29.98 "HgN/A
10:20 AM57 °FPassing clouds.1 mph55%29.98 "HgN/A
9:50 AM55 °FPassing clouds.3 mph59%29.98 "HgN/A
9:20 AM54 °FPassing clouds.2 mph67%29.98 "HgN/A
8:50 AM54 °FPassing clouds.1 mph67%29.98 "HgN/A
8:20 AM52 °FPassing clouds.5 mph77%29.98 "HgN/A
7:50 AM52 °FPassing clouds.6 mph77%29.98 "HgN/A
7:20 AM48 °FScattered clouds.7 mph94%29.98 "HgN/A
6:50 AM48 °FPassing clouds.7 mph87%29.98 "HgN/A
6:20 AM48 °FScattered clouds.5 mph82%29.98 "HgN/A
5:50 AM46 °FPassing clouds.3 mph87%29.98 "HgN/A
3:50 AM48 °FPassing clouds.5 mph87%29.95 "HgN/A
2:50 AM52 °FPassing clouds.8 mph72%29.95 "HgN/A
1:50 AM52 °FPassing clouds.10 mph72%29.95 "HgN/A
1:20 AM52 °FPassing clouds.9 mph72%29.95 "HgN/A
12:50 AM52 °FPassing clouds.10 mph72%29.95 "HgN/A
11:50 PM
Fri, Jul 31
52 °FPassing clouds.7 mph82%29.92 "HgN/A
11:20 PM52 °FPassing clouds.8 mph77%29.92 "HgN/A
10:50 PM52 °FScattered showers. Partly sunny.13 mph77%29.92 "HgN/A
9:50 PM52 °FScattered showers. Broken clouds.14 mph77%29.92 "HgN/A
9:20 PM52 °FBroken clouds.12 mph77%29.89 "HgN/A
8:50 PM54 °FBroken clouds.18 mph72%29.89 "HgN/A
8:20 PM52 °FBroken clouds.12 mph77%29.89 "HgN/A
7:50 PM52 °FBroken clouds.16 mph77%29.89 "HgN/A
7:20 PM52 °FScattered showers. Broken clouds.22 mph77%29.89 "HgN/A
6:50 PM54 °FBroken clouds.17 mph77%29.86 "HgN/A
6:20 PM54 °FScattered showers. Broken clouds.22 mph72%29.86 "HgN/A
5:50 PM54 °FScattered showers. Broken clouds.22 mph72%29.86 "HgN/A
5:20 PM55 °FScattered showers. Broken clouds.25 mph67%29.86 "HgN/A
4:50 PM55 °FBroken clouds.25 mph67%29.83 "HgN/A
4:20 PM55 °FBroken clouds.23 mph72%29.83 "HgN/A
3:50 PM55 °FScattered showers. Broken clouds.22 mph72%29.83 "HgN/A
3:20 PM55 °FScattered showers. Broken clouds.23 mph67%29.83 "HgN/A
2:50 PM57 °FScattered clouds.23 mph63%29.80 "HgN/A
2:20 PM57 °FScattered clouds.21 mph67%29.80 "HgN/A
Weather by CustomWeather, © 2015

See weather overviewHow to use our weather pages